Weather History for Yakima, WA

Change the Weather History Date:

Wednesday, May 13, 2009

  Actual Average Record
Temperature  
Mean Temperature 43 °F 56 °F  
Max Temperature 56 °F 72 °F 96 °F (1949)
Min Temperature 30 °F 41 °F 28 °F (1964)
Degree Days  
Heating Degree Days 22 9  
Month to date heating degree days 182 139  
Since 1 July heating degree days 6042 5821  
Cooling Degree Days 0 1  
Month to date cooling degree days 0 2  
Year to date cooling degree days 0 3  
Moisture  
Dew Point 32 °F    
Average Humidity 57    
Maximum Humidity 78    
Minimum Humidity 35    
Precipitation  
Precipitation 0.02 in 0.02 in 0.57 in (1996)
Month to date precipitation 0.68 0.23  
Year to date precipitation 3.41 3.32  
Snow  
Snow 0.00 in 0.00 in 0.00 in (2002)
Month to date snowfall 0.0 0.0  
Year to date snowfall 8.1 8.6  
Since 1 July snowfall 17.5 21.6  
Snow Depth 0.00 in    
Sea Level Pressure  
Sea Level Pressure 30.03 in    
Wind  
Wind Speed 4 mph (South)    
Max Wind Speed 15 mph    
Max Gust Speed 21 mph    
Visibility 10 miles    
Events Rain    
T = Trace of Precipitation, MM = Missing Value Source: NWS Daily Summary

Daily Weather History Graph

Daily Weather History Graph

Search for Another Location

Airport:

Trip Planner

Search our weather history database for the weather conditions in past years. The results will help you decide how hot, cold, wet, or windy it might be!

Date:

Astronomy

May. 13, 2009 Rise Set
Actual Time 5:30 AM PDT 8:27 PM PDT
Civil Twilight 4:54 AM PDT 9:03 PM PDT
Nautical Twilight 4:09 AM PDT 9:48 PM PDT
Astronomical Twilight 3:15 AM PDT 10:43 PM PDT
Moon 12:16 AM PDT (5/13) 8:38 AM PDT (5/13)
Length of Visible Light 16h 08m
Length of Day
14h 57m
Waning Gibbous, 81% of the Moon is Illuminated
May 13
Waning Gibbous
May 17
Last Quarter
May 24
New
May 30
First Quarter
Jun 7
Full

Hourly Weather History & Observations

Time (PDT) Temp. Windchill Dew Point Humidity Pressure Visibility Wind Dir Wind Speed Gust Speed Precip Events Conditions
12:53 AM 39.9 °F - 28.0 °F 63% 30.15 in 10.0 mi Calm Calm - N/A   Clear
1:53 AM 37.0 °F 34.5 °F 28.9 °F 73% 30.15 in 10.0 mi East 3.5 mph - N/A   Clear
2:53 AM 35.1 °F 29.3 °F 27.0 °F 72% 30.17 in 10.0 mi West 6.9 mph - N/A   Clear
3:53 AM 34.0 °F 31.0 °F 27.0 °F 75% 30.17 in 10.0 mi South 3.5 mph - N/A   Clear
4:53 AM 30.9 °F 26.2 °F 25.0 °F 79% 30.18 in 10.0 mi West 4.6 mph - N/A   Clear
5:53 AM 30.0 °F 24.1 °F 25.0 °F 82% 30.17 in 10.0 mi WNW 5.8 mph - N/A   Clear
6:53 AM 36.0 °F - 28.9 °F 76% 30.18 in 10.0 mi Calm Calm - N/A   Clear
7:53 AM 42.1 °F - 30.0 °F 62% 30.17 in 10.0 mi Calm Calm - N/A   Clear
8:53 AM 45.0 °F - 30.0 °F 56% 30.15 in 10.0 mi Calm Calm - N/A   Clear
9:53 AM 48.0 °F - 28.9 °F 48% 30.13 in 10.0 mi Calm Calm - N/A   Clear
10:53 AM 51.1 °F - 28.0 °F 41% 30.11 in 10.0 mi East 3.5 mph - N/A   Clear
11:53 AM 52.0 °F - 28.0 °F 40% 30.08 in 10.0 mi SE 3.5 mph - N/A   Clear
12:53 PM 53.1 °F - 26.1 °F 35% 30.05 in 10.0 mi Variable 3.5 mph - N/A   Partly Cloudy
1:53 PM 54.0 °F - 27.0 °F 35% 30.03 in 10.0 mi Calm Calm - N/A   Mostly Cloudy
2:53 PM 54.0 °F - 27.0 °F 35% 30.01 in 10.0 mi South 4.6 mph - N/A   Scattered Clouds
3:53 PM 54.0 °F - 32.0 °F 43% 29.99 in 10.0 mi Variable 6.9 mph 16.1 mph N/A   Overcast
4:53 PM 53.1 °F - 35.1 °F 50% 29.96 in 10.0 mi SSW 8.1 mph - 0.00 in   Mostly Cloudy
5:53 PM 53.1 °F - 37.0 °F 55% 29.93 in 10.0 mi South 9.2 mph - N/A   Mostly Cloudy
6:53 PM 52.0 °F - 37.0 °F 57% 29.89 in 10.0 mi South 4.6 mph - N/A   Mostly Cloudy
7:53 PM 51.1 °F - 37.9 °F 61% 29.86 in 10.0 mi West 4.6 mph - 0.00 in Rain Light Rain
8:53 PM 50.0 °F - 39.9 °F 68% 29.83 in 10.0 mi Calm Calm - 0.00 in   Overcast
9:53 PM 50.0 °F - 39.9 °F 68% 29.82 in 10.0 mi ENE 6.9 mph - N/A   Overcast
10:53 PM 48.9 °F - 43.0 °F 80% 29.80 in 10.0 mi East 4.6 mph - 0.01 in Rain Light Rain
11:53 PM 48.0 °F - 44.1 °F 86% 29.78 in 10.0 mi Calm Calm - 0.01 in Rain Light Rain